Location: Double Diamond Ranch
(30.2800°N, 103.5900°W)
Time: 13:04:06
(UTC-05:00)

ISS - Visible Passes

Search period start: 25 April 2018 00:00
Search period end: 05 May 2018 00:00
Orbit: 403 x 406 km, 51.6° (Epoch: 26 April)

Date Brightness Start Highest point End Pass type
(mag) Time Alt. Az. Time Alt. Az. Time Alt. Az.
27 Apr -0.9 06:17:41 10° SSE 06:18:55 12° SE 06:20:09 10° ESE visible
29 Apr -2.5 06:08:13 14° SSW 06:10:34 34° SE 06:13:33 10° ENE visible
30 Apr -1.4 05:18:21 16° SE 05:18:25 16° SE 05:20:26 10° E visible
01 May -3.8 06:01:02 33° WSW 06:02:18 68° NW 06:05:32 10° NE visible
02 May -2.3 05:10:56 35° E 05:10:56 35° E 05:13:09 10° NE visible
03 May -2.3 05:53:23 22° WNW 05:54:08 24° NW 05:56:50 10° NNE visible
04 May -1.9 05:03:06 28° NNE 05:03:06 28° NNE 05:04:53 10° NNE visible
